GW6786 Weather Reports


Display with metric or nautical units.
time (UTC)temp
F
wind
direction
speed
MPH
gust
MPH
rain 1hr
in
rain 24hr
in
rain mn
in
humidity
%
barometer
mb
20260505072604 53 269 2.0 8.0 0.00 0.09 0.00 70 1019.4
20260505072104 53 265 2.0 7.0 0.00 0.09 0.00 70 1019.3
20260505071105 54 258 1.0 8.0 0.00 0.09 0.00 68 1019.2
20260505070604 54 257 2.0 8.0 0.00 0.09 0.00 67 1019.1
20260505070104 55 201 4.0 8.0 0.00 0.09 0.00 66 1019.1
20260505065605 55 198 5.0 7.0 0.00 0.09 0.00 65 1019.0
20260505065104 56 205 2.0 8.0 0.00 0.09 0.00 65 1019.0
20260505064604 56 206 5.0 8.0 0.00 0.09 0.00 63 1019.0
20260505064104 56 196 5.0 7.0 0.00 0.09 0.00 63 1018.9
20260505063604 56 206 3.0 13.0 0.00 0.09 0.00 62 1018.9
20260505061104 58 257 3.0 8.0 0.00 0.09 0.00 60 1018.8
20260505060604 57 196 3.0 8.0 0.00 0.09 0.00 60 1018.8
20260505060104 57 192 3.0 8.0 0.00 0.09 0.00 59 1018.8
20260505055604 57 193 5.0 8.0 0.00 0.09 0.00 58 1018.8
20260505054604 57 204 3.0 6.0 0.00 0.09 0.00 60 1018.8
20260505054104 57 204 2.0 6.0 0.00 0.09 0.00 59 1018.8
20260505053604 57 243 3.0 7.0 0.00 0.09 0.00 60 1018.8
20260505053104 57 191 5.0 8.0 0.00 0.09 0.00 59 1018.7
20260505052604 57 194 3.0 8.0 0.00 0.09 0.00 59 1018.7
20260505052104 57 201 4.0 8.0 0.00 0.09 0.00 59 1018.7
20260505051604 57 196 4.0 9.0 0.00 0.09 0.00 60 1018.7
20260505051104 57 195 7.0 9.0 0.00 0.09 0.00 59 1018.7
20260505050604 57 195 5.0 15.0 0.00 0.09 0.00 59 1018.6
20260505041603 59 191 5.0 12.0 0.00 0.09 0.00 61 1017.9
20260505040604 58 200 4.0 12.0 0.00 0.09 0.00 61 1017.9
20260505040104 59 189 6.0 12.0 0.00 0.09 0.00 60 1017.8
20260505034604 58 217 4.0 12.0 0.00 0.09 0.00 63 1017.8
20260505034104 58 198 8.0 10.0 0.00 0.09 0.00 62 1017.8
20260505033604 58 249 5.0 13.0 0.00 0.09 0.00 63 1017.8
20260505033104 58 200 10.0 13.0 0.00 0.09 0.00 61 1017.8
20260505032604 59 216 7.0 16.0 0.00 0.09 0.00 64 1017.8
20260505032104 59 216 5.0 16.0 0.00 0.09 0.00 67 1017.8
20260505031604 59 204 10.0 16.0 0.00 0.09 0.00 65 1017.8
20260505030604 58 229 7.0 17.0 0.00 0.09 0.00 68 1017.8
20260505030104 57 237 7.0 17.0 0.00 0.09 0.00 69 1017.9
20260505025604 56 240 10.0 15.0 0.00 0.09 0.00 70 1018.0
20260505025104 57 199 10.0 13.0 0.00 0.09 0.00 69 1018.0
20260505024104 57 226 6.0 18.0 0.00 0.09 0.00 70 1018.0
20260505023104 56 226 10.0 16.0 0.00 0.09 0.00 70 1018.2
20260505022603 56 247 10.0 16.0 0.00 0.09 0.00 70 1018.3
20260505021104 56 245 11.0 18.0 0.00 0.09 0.00 71 1018.4
20260505020603 56 212 12.0 16.0 0.00 0.09 0.00 70 1018.5
20260505015603 56 234 9.0 21.0 0.00 0.09 0.00 70 1018.8
20260505015104 56 257 12.0 21.0 0.00 0.10 0.00 69 1018.9
20260505014604 55 224 5.0 16.0 0.00 0.10 0.00 72 1019.0
20260505014104 55 243 5.0 16.0 0.00 0.12 0.00 71 1019.1
20260505013104 54 207 5.0 13.0 0.00 0.12 0.00 74 1019.2
20260505012604 53 194 10.0 13.0 0.00 0.12 0.00 73 1019.2
20260505012104 53 207 6.0 13.0 0.00 0.12 0.00 74 1019.3
20260505011105 53 223 9.0 15.0 0.00 0.12 0.00 74 1019.4
20260505010605 53 250 5.0 13.0 0.00 0.12 0.00 75 1019.4
20260505010105 52 231 8.0 15.0 0.00 0.12 0.00 75 1019.4
20260505005604 52 202 8.0 15.0 0.00 0.12 0.00 76 1019.5
20260505003605 52 207 6.0 12.0 0.00 0.12 0.00 78 1019.6
20260505003104 51 203 7.0 10.0 0.00 0.12 0.00 79 1019.7
20260505002605 51 193 6.0 16.0 0.00 0.12 0.00 79 1019.7
20260505002104 51 204 6.0 16.0 0.00 0.12 0.00 78 1019.7
20260505001604 51 262 6.0 12.0 0.00 0.12 0.00 79 1019.6
20260505001104 51 204 7.0 12.0 0.00 0.12 0.00 80 1019.6
20260505000605 50 209 6.0 12.0 0.00 0.12 0.00 80 1019.7
20260505000104 50 220 6.0 12.0 0.00 0.12 0.00 80 1019.6
20260504235604 50 221 8.0 12.0 0.00 0.12 0.00 81 1019.7
20260504235104 50 204 6.0 10.0 0.00 0.12 0.00 81 1019.8
20260504234605 50 197 3.0 10.0 0.00 0.13 0.00 81 1019.8
20260504234105 49 237 5.0 12.0 0.00 0.13 0.00 82 1019.8
20260504233604 49 208 8.0 12.0 0.00 0.13 0.00 81 1019.8
20260504233105 49 207 3.0 17.0 0.00 0.14 0.00 81 1019.8
20260504232104 49 242 5.0 9.0 0.00 0.15 0.00 82 1019.8
20260504231104 49 194 4.0 9.0 0.00 0.17 0.00 82 1019.9
20260504230605 48 226 6.0 9.0 0.00 0.17 0.00 82 1019.7
20260504225604 48 210 6.0 15.0 0.00 0.20 0.00 83 1019.6
20260504225105 48 194 5.0 15.0 0.00 0.23 0.00 82 1019.6
20260504224605 48 254 5.0 10.0 0.00 0.24 0.00 83 1019.5
20260504224104 47 226 6.0 10.0 0.00 0.26 0.00 83 1019.4
20260504223605 47 206 6.0 9.0 0.00 0.28 0.00 84 1019.4
20260504223104 47 190 5.0 8.0 0.00 0.28 0.00 85 1019.4
20260504222604 47 197 3.0 10.0 0.00 0.29 0.00 85 1019.4
20260504222104 46 224 5.0 10.0 0.00 0.29 0.00 85 1019.3
20260504221604 46 216 3.0 8.0 0.00 0.29 0.00 86 1019.3
20260504221105 46 207 4.0 9.0 0.00 0.30 0.00 85 1019.3
20260504220604 46 208 3.0 9.0 0.00 0.31 0.00 86 1019.1
20260504220104 46 194 4.0 13.0 0.00 0.31 0.00 86 1019.0
20260504215605 46 197 6.0 13.0 0.00 0.31 0.00 86 1018.9
20260504215104 46 193 6.0 15.0 0.00 0.31 0.00 86 1018.8
20260504214604 46 205 7.0 15.0 0.00 0.31 0.00 86 1018.7
20260504214104 45 255 5.0 15.0 0.00 0.31 0.00 86 1018.5
20260504213604 45 239 5.0 9.0 0.00 0.31 0.00 87 1018.4
20260504213104 45 209 5.0 12.0 0.00 0.31 0.00 87 1018.3
20260504212605 45 219 4.0 12.0 0.00 0.31 0.00 88 1018.2
20260504212104 45 209 5.0 9.0 0.00 0.31 0.00 88 1018.1
20260504211604 44 245 6.0 9.0 0.00 0.31 0.00 88 1018.0
20260504211104 44 216 5.0 10.0 0.00 0.31 0.00 88 1017.9
20260504210605 44 245 6.0 12.0 0.00 0.31 0.00 88 1017.9
20260504210104 44 247 7.0 12.0 0.00 0.31 0.00 87 1017.9
20260504205604 44 259 6.0 12.0 0.00 0.31 0.00 87 1017.8
20260504205104 44 256 7.0 15.0 0.00 0.31 0.00 87 1017.7
20260504204604 45 252 5.0 15.0 0.00 0.31 0.00 86 1017.6
20260504203604 45 250 5.0 13.0 0.00 0.31 0.00 86 1017.4
20260504203104 45 198 6.0 13.0 0.00 0.31 0.00 86 1017.4
20260504202604 45 216 6.0 15.0 0.00 0.31 0.00 86 1017.4
20260504202104 45 256 9.0 15.0 0.00 0.31 0.00 86 1017.4
20260504201604 45 201 7.0 12.0 0.00 0.31 0.00 86 1017.3
20260504201104 45 194 4.0 8.0 0.00 0.31 0.00 85 1017.4
20260504200605 45 228 4.0 15.0 0.00 0.31 0.00 85 1017.3
20260504200104 45 243 5.0 15.0 0.00 0.31 0.00 85 1017.2
20260504195604 45 229 6.0 15.0 0.00 0.31 0.00 84 1017.1
20260504195104 45 208 9.0 15.0 0.00 0.31 0.00 84 1017.0
20260504194604 45 225 5.0 10.0 0.00 0.31 0.00 84 1017.0
20260504194105 46 223 8.0 13.0 0.00 0.31 0.00 83 1017.0
20260504193604 46 209 9.0 15.0 0.00 0.31 0.00 83 1016.9
20260504193104 46 211 9.0 15.0 0.00 0.31 0.00 82 1016.9
20260504192604 46 217 7.0 17.0 0.00 0.31 0.00 83 1016.8
20260504192105 46 226 11.0 17.0 0.00 0.31 0.00 82 1016.7
20260504191604 46 208 10.0 17.0 0.00 0.31 0.00 82 1016.7
20260504191104 45 210 9.0 16.0 0.00 0.31 0.00 83 1016.7
20260504190604 45 224 7.0 16.0 0.00 0.31 0.00 83 1016.7
20260504190104 45 209 7.0 16.0 0.00 0.31 0.00 83 1016.7
20260504185604 46 236 5.0 20.0 0.00 0.31 0.00 83 1016.7
20260504185104 46 227 12.0 20.0 0.00 0.31 0.00 83 1016.7
20260504184605 45 202 7.0 15.0 0.00 0.31 0.00 84 1016.6
20260504184104 46 246 6.0 17.0 0.00 0.31 0.00 83 1016.6
20260504183604 46 229 7.0 22.0 0.00 0.31 0.00 83 1016.6
20260504183104 46 212 9.0 22.0 0.00 0.31 0.00 83 1016.5
20260504182604 46 219 9.0 16.0 0.00 0.31 0.00 84 1016.4
20260504182104 46 215 7.0 24.0 0.00 0.31 0.00 84 1016.4
20260504181604 46 197 9.0 24.0 0.00 0.31 0.00 85 1016.4
20260504181104 45 212 7.0 13.0 0.00 0.31 0.00 87 1016.4
20260504180604 45 234 6.0 10.0 0.00 0.31 0.00 87 1016.3
20260504180104 45 225 5.0 13.0 0.00 0.31 0.00 87 1016.3
20260504175104 46 226 6.0 13.0 0.00 0.31 0.00 87 1016.3
20260504174604 46 229 5.0 15.0 0.00 0.31 0.00 87 1016.3
20260504174104 46 230 7.0 18.0 0.00 0.31 0.00 87 1016.4
20260504173604 46 226 7.0 18.0 0.00 0.31 0.00 87 1016.4
20260504173104 46 228 6.0 15.0 0.00 0.31 0.00 87 1016.4
20260504172605 46 248 6.0 15.0 0.00 0.31 0.00 87 1016.5
20260504172104 46 262 7.0 15.0 0.00 0.31 0.00 87 1016.6
20260504171104 46 259 9.0 13.0 0.00 0.31 0.00 87 1016.7
20260504170605 46 242 6.0 16.0 0.00 0.31 0.00 87 1016.6
20260504170104 46 237 5.0 16.0 0.00 0.31 0.00 86 1016.6
20260504160104 48 210 7.0 17.0 0.00 0.31 0.00 86 1016.7
20260504151103 48 244 5.0 10.0 0.00 0.31 0.00 87 1016.8
20260504150604 48 228 4.0 12.0 0.00 0.31 0.00 87 1016.8
20260504150105 48 201 8.0 12.0 0.00 0.31 0.00 87 1016.8
20260504141105 48 246 6.0 13.0 0.00 0.31 0.00 87 1017.2
20260504140604 48 238 4.0 8.0 0.00 0.31 0.00 87 1017.1
20260504140104 48 251 4.0 10.0 0.00 0.31 0.00 86 1017.1
20260504130604 50 199 5.0 16.0 0.00 0.31 0.31 88 1017.1
20260504110105 56 193 2.0 5.0 0.03 0.25 0.25 94 1017.3
20260504100604 57 326 3.0 12.0 0.00 0.22 0.22 91 1016.3
20260504090105 57 305 4.0 7.0 0.00 0.22 0.22 92 1016.2
20260504081605 57 309 3.0 9.0 0.00 0.22 0.22 91 1016.0
20260504081104 57 312 4.0 9.0 0.00 0.22 0.22 91 1016.0
20260504080604 57 298 5.0 10.0 0.00 0.22 0.22 92 1016.0
20260504080104 57 323 6.0 10.0 0.00 0.22 0.22 91 1016.0